Regional Weather Roundup
Issued by NWS

Home | Current Version | Previous Version | Graphics & Text | Print | Product List | Glossary On
Versions: 1 2 3 4 5 6 7 8 9 10 11 12 13 14 15 16 17 18 19 20 21 22 23 24 25 26 27 28 29 30 31 32 33 34 35 36 37 38 39 40 41 42 43 44 45 46 47 48 49 50
000
ASUS45 KSLC 010910
RWRUT

UTAH REGIONAL WEATHER ROUNDUP
NATIONAL WEATHER SERVICE SALT LAKE CITY UT
300 AM MDT SAT AUG 01 2015

UTZ001>011-023>025-011000-

NORTHERN UTAH

CITY           SKY/WX    TMP DP  RH WIND       PRES   REMARKS
BRIGHAM CITY   CLEAR     66  42  41 CALM      30.11F
HILL AFB       PTCLDY    68  32  26 E21       30.13F
LOGAN          CLEAR     58  42  55 NE3       30.15S
OGDEN          PTCLDY    68  33  27 S9        30.11F
PROVO AIRPORT  CLEAR     61  36  39 CALM      30.14F
SALT LAKE CITY PTCLDY    68  39  34 SE5       30.12R
VERNAL         CLEAR     68  31  25 CALM      30.16S
WENDOVER       MOCLDY    73  27  17 W6        30.11F
HEBER CITY     PTCLDY    50  36  57 CALM      30.24S
WEST JORDAN    CLEAR     64  32  29 CALM      30.13F

$$

UTZ012>022-026-027-011000-

SOUTHERN/CENTRAL UTAH

CITY           SKY/WX    TMP DP  RH WIND       PRES   REMARKS
BLANDING       CLOUDY    70  53  54 CALM      30.36R
BRYCE CANYON   MOCLDY    56  44  64 W9        30.39F
CEDAR CITY     PTCLDY    67  43  41 S3        30.22S
DELTA          PTCLDY    67  24  20 CALM      30.14R
HANKSVILLE     CLEAR     75  45  33 S6        30.13F
MILFORD        CLEAR     62  45  53 SE5       30.15F
MOAB/CYNLANDS  CLEAR     76  50  40 CALM      30.11F
PRICE          PTCLDY    67  14  13 CALM      30.22S
ST GEORGE      MOSUNNY   81  54  39 SE7       30.04S

$$

REGIONAL REPORTS     COLORADO/ARIZONA

CITY           SKY/WX    TMP DP  RH WIND       PRES   REMARKS
CRAIG, CO      CLEAR     50  37  61 NE3       30.26R
GRAND JUNCTION PTCLDY    72  47  40 E13       30.16S
RIFLE          CLEAR     63  37  38 CALM      30.23S
MONTROSE       PTCLDY    63  48  58 SE6       30.27F
CORTEZ         MOCLDY    63  60  90 CALM      30.29F
PAGE, AZ       MOCLDY    78  50  37 S5        30.13S
GRAND CANYON   CLOUDY    62  54  74 N3        30.32S
KINGMAN        CLOUDY    81  51  35 SE9       30.07F
FLAGSTAFF      CLOUDY    58  55  90 E3        30.36F

$$

REGIONAL REPORTS    NEVADA/IDAHO/WYOMING

CITY           SKY/WX    TMP DP  RH WIND       PRES   REMARKS
LAS VEGAS, NV  CLOUDY    91  54  28 S3        29.90S
ELY            MOCLDY    55  27  34 S10       30.27F
ELKO           PTCLDY    64  23  21 NE3       30.19S
POCATELLO, ID  CLEAR     59  33  37 E8        30.15F
BURLEY         CLEAR     55  40  56 CALM      30.11F
EVANSTON, WY   PTCLDY    60  26  27 SE6       30.33F
ROCK SPRINGS   PTCLDY    58  24  27 CALM      30.29S
KEMMERER       CLEAR     54  32  43 NW9       30.34F

$$



USA.gov is the U.S. government's official web portal to all federal, state and local government web resources and services.